Location: Kikino
(54.4440°N, 112.0940°W)
Time: 18:01:36
(UTC+00:00)

A-11 Canister half - Pass Details

Date: 22 May 2024
Orbit: 1525 x 1683 km, 47.3° (Epoch: 12 June)

Event Time Altitude Azimuth Distance (km) Brightness Sun altitude
Rises 04:59:04 0° 222° (SW) 4,686 11.4 -8.8°
Reaches altitude 10° 05:02:19 10° 215° (SW) 3,719 10.8 -9.1°
Maximum altitude 05:10:46 39° 150° (SSE) 2,202 9.4 -9.7°
Drops below altitude 10° 05:19:27 10° 87° (E) 3,834 10.8 -10.4°
Sets 05:22:51 0° 80° (E) 4,845 11.4 -10.6°
